Regional Weather Roundup
Issued by NWS

Home | Current Version | Previous Version | Text Only | Print | Product List | Glossary Off
Versions: 1 2 3 4 5 6 7 8 9 10 11 12 13 14 15 16 17 18 19 20 21 22 23 24 25 26 27 28 29 30 31 32 33 34 35 36 37 38 39 40 41 42 43 44 45 46 47 48 49 50

000
ASUS43 KIND 020959
RWRIN

WEATHER ROUNDUP FOR INDIANA
NATIONAL WEATHER SERVICE INDIANAPOLIS IN
600 AM EDT TUE SEP 02 2014

NOTE: "FAIR" INDICATES FEW OR NO CLOUDS BELOW 12,000 FEET WITH NO
SIGNIFICANT WEATHER AND/OR OBSTRUCTIONS TO VISIBILITY.

* - STATION DOES NOT REPORT WEATHER SUCH AS PRECIPITATION OR FOG.

+ - STATION NOT QUALITY CONTROLLED BY THE NATIONAL WEATHER SERVICE.
    USE DATA WITH CAUTION...ESPECIALLY DEWPOINT AND RELATIVE
    HUMIDITY OBSERVATIONS.

INZ001>003-010>013-019-020-021100-
NORTHWEST INDIANA

CITY           SKY/WX    TMP DP  RH WIND       PRES   REMARKS
GARY /AIRPORT/ MOCLDY    72  68  88 S7        29.89R
KNOX *+        CLOUDY    69  65  89 S6        29.88R
MONTICELLO +   CLOUDY    66  65  97 S3        29.90S
VALPARAISO     CLOUDY    68  66  93 W6        29.90R

$$

LMZ046-743>745-021100-
SOUTHERN LAKE MICHIGAN

STATION/POSITION TIME  TEMP WIND        PRES
                       AIR  DIR/SP/G
                 (UTC) (F)  (DEG/KT/KT) (MB)
MICHIGAN CITY    0900   71  160/  6/  8   N/A

$$

INZ004-005-014>016-021>024-021100-
NORTH CENTRAL INDIANA

CITY           SKY/WX    TMP DP  RH WIND       PRES   REMARKS
GOSHEN         CLOUDY    71  67  87 SW10      29.89R
SOUTH BEND     CLOUDY    69  65  86 SW9       29.89R

$$

INZ006>009-017-018-025>027-021100-
NORTHEAST INDIANA

CITY           SKY/WX    TMP DP  RH WIND       PRES   REMARKS
ANGOLA *+      MOCLDY    70  61  73 SW8       29.89S
FORT WAYNE     RAIN      67  65  93 SW13      29.93F

$$

INZ028-029-035-036-043>045-051>053-021100-
WEST CENTRAL INDIANA

CITY           SKY/WX    TMP DP  RH WIND       PRES   REMARKS
GREENCASTLE +  RAIN      64  64 100 CALM      29.95F
LAFAYETTE      CLOUDY    66  66 100 S3        29.90F
TERRE HAUTE    LGT RAIN  67  65  93 S9        29.93F

$$

INZ030>032-037>040-046>048-054>057-064-065-021100-
CENTRAL INDIANA

CITY           SKY/WX    TMP DP  RH WIND       PRES   REMARKS
FRANKFORT +    LGT RAIN N/A N/A N/A S5        29.91F
INDIANAPOLIS   HVY RAIN  66  65  96 S9        29.95S FOG
-EAGLE CREEK   RAIN      67  64  90 S6        29.94F FOG
KOKOMO *+      CLOUDY    66  64  94 S9        29.91F
MT COMFORT *+  CLOUDY    66 N/A N/A S6        29.97R
SHELBYVILLE    RAIN      68  65  90 SE6       29.98R FOG

$$

INZ033-034-041-042-049-050-058-059-021100-
EAST CENTRAL INDIANA

CITY           SKY/WX    TMP DP  RH WIND       PRES   REMARKS
MUNCIE         LGT RAIN  68  65  90 S7        29.96F

$$

INZ060-061-067>069-081>083-085>088-021100-
SOUTHWEST INDIANA

CITY           SKY/WX    TMP DP  RH WIND       PRES   REMARKS
EVANSVILLE     CLOUDY    73  66  78 N12G21    29.98R

$$

INZ062-063-066-070>080-084-089>092-021100-
SOUTH CENTRAL AND SOUTHEAST INDIANA

CITY           SKY/WX    TMP DP  RH WIND       PRES   REMARKS
BLOOMINGTON    HVY RAIN  66  65  96 N3        29.99R FOG

$$



USA.gov is the U.S. government's official web portal to all federal, state and local government web resources and services.